This demonstration page uses our WeatherBlox Daily Observations layout. Learn more.

Left ArrowRight Arrow

Hourly Observations for February 26, 2016

Temp ( °F °C ) Dew Point ( °F °C ) Humidity (%) Winds ( mph kmh ) Pressure ( in mb ) Visibility ( mi km ) Precip ( " mm )
12:15 am 00:15 Clear 26 -3.5 17 -8.1 71 71 SSW 7 11 30.39 1029 10 16 N/A
12:35 am 00:35 Clear 26 -3.5 17 -8.1 71 71 SSW 7 11 30.36 1028 10 16 N/A
12:55 am 00:55 Clear 26 -3.1 17 -8.5 67 67 SSW 7 11 30.36 1028 10 16 N/A
1:15 am 01:15 Clear 26 -3.3 17 -8.2 69 69 SW 7 11 30.36 1028 10 16 N/A
1:35 am 01:35 Clear 27 -2.8 17 -8.2 67 67 SW 8 13 30.36 1028 10 16 N/A
1:55 am 01:55 Clear 27 -2.7 17 -8.3 66 66 SW 7 11 30.36 1028 10 16 N/A
2:15 am 02:15 Partly Cloudy 27 -2.6 17 -8.1 66 66 SW 9 15 30.36 1028 10 16 N/A
2:35 am 02:35 Clear 29 -1.9 18 -8 63 63 SW 9 15 30.36 1028 10 16 N/A
2:55 am 02:55 Clear 29 -1.5 18 -8 62 62 SW 8 13 30.30 1026 10 16 N/A
3:15 am 03:15 Clear 29 -1.7 18 -7.8 63 63 SW 9 15 30.33 1027 10 16 N/A
3:35 am 03:35 Clear 29 -1.6 18 -7.9 63 63 SW 8 13 30.33 1027 10 16 N/A
3:55 am 03:55 Clear 29 -1.5 18 -7.9 62 62 SW 10 17 30.30 1026 10 16 N/A
4:15 am 04:15 Partly Cloudy 29 -1.6 18 -8 62 62 SW 10 17 30.27 1025 10 16 N/A
4:35 am 04:35 Clear 28 -2 17 -8.1 63 63 SW 13 20 30.27 1025 10 16 N/A
4:55 am 04:55 Clear 28 -2 17 -8.1 63 63 SW 12 19 30.27 1025 10 16 N/A
5:15 am 05:15 Clear 28 -2 17 -8.1 63 63 SW 10 17 30.27 1025 10 16 N/A
5:35 am 05:35 Clear 28 -2.2 17 -8.2 64 64 SW 10 17 30.27 1025 10 16 N/A
5:55 am 05:55 Partly Cloudy 28 -2.1 18 -8 64 64 SW 10 17 30.24 1024 10 16 N/A
6:15 am 06:15 Cloudy 29 -1.5 17 -8.1 61 61 SW 14 22 30.24 1024 10 16 N/A
6:35 am 06:35 Mostly Cloudy 30 -1.2 17 -8.1 60 60 SW 16 26 30.24 1024 10 16 N/A
6:55 am 06:55 Mostly Cloudy 30 -1.2 17 -8.5 58 58 SW 8 13 30.24 1024 10 16 N/A
7:15 am 07:15 Partly Cloudy 29 -1.9 17 -8.5 61 61 SW 7 11 30.24 1024 10 16 N/A
7:35 am 07:35 Sunny 28 -2 17 -8.5 61 61 SW 9 15 30.24 1024 10 16 N/A
7:55 am 07:55 Sunny 30 -1.3 17 -8.3 59 59 WSW 8 13 30.24 1024 10 16 N/A
8:15 am 08:15 Sunny 32 undefined 17 -8.4 54 54 W 9 15 30.24 1024 10 16 N/A
8:35 am 08:35 Sunny 32 0.2 18 -7.9 55 55 W 12 19 30.24 1024 10 16 N/A
8:55 am 08:55 Sunny 35 1.5 18 -7.8 50 50 WNW 10 17 30.21 1023 10 16 N/A
9:15 am 09:15 Sunny 37 3 19 -7.1 48 48 WNW 12 19 30.21 1023 10 16 N/A
9:35 am 09:35 Sunny 41 5.2 20 -6.7 42 42 NW 12 19 30.18 1022 10 16 N/A
9:55 am 09:55 Sunny 44 6.9 19 -7.1 36 36 NW 16 26 30.21 1023 10 16 N/A
10:15 am 10:15 Sunny 47 8.1 19 -7.2 33 33 NW 16 26 30.18 1022 10 16 N/A
10:35 am 10:35 Sunny 47 8.5 20 -6.9 33 33 NW 16 26 30.18 1022 10 16 N/A
10:55 am 10:55 Sunny 48 9.1 20 -6.5 33 33 NW 13 20 30.18 1022 10 16 N/A
11:15 am 11:15 Sunny 49 9.7 20 -6.4 32 32 NW 12 19 30.15 1021 10 16 N/A
11:35 am 11:35 Sunny 51 10.8 21 -6.2 30 30 NW 16 26 30.15 1021 10 16 N/A
11:55 am 11:55 Sunny 53 11.6 21 -6.3 28 28 NW 14 22 30.12 1020 10 16 N/A
12:15 pm 12:15 Sunny 54 12.3 21 -6.2 27 27 NNW 16 26 30.12 1020 10 16 N/A
12:35 pm 12:35 Sunny 55 12.8 19 -7.5 24 24 NNW 17 28 30.12 1020 10 16 N/A
12:55 pm 12:55 Sunny 55 12.9 16 -8.7 22 22 NW 18 30 30.12 1020 10 16 N/A
1:15 pm 13:15 Sunny 56 13.3 17 -8.2 22 22 NNW 13 20 30.12 1020 10 16 N/A
1:35 pm 13:35 Sunny 57 14 16 -8.8 20 20 NW 17 28 30.09 1019 10 16 N/A
1:55 pm 13:55 Sunny 58 14.5 17 -8.6 20 20 NNW 14 22 30.09 1019 10 16 N/A
2:15 pm 14:15 Sunny 58 14.5 17 -8.6 20 20 NNW 16 26 30.09 1019 10 16 N/A
2:35 pm 14:35 Sunny 58 14.6 17 -8.3 20 20 NNW 15 24 30.09 1019 10 16 N/A
2:55 pm 14:55 Sunny 58 14.7 17 -8.4 20 20 NNW 15 24 30.09 1019 10 16 N/A
3:15 pm 15:15 Sunny 59 15 17 -8.1 20 20 NNW 12 19 30.09 1019 10 16 N/A
3:35 pm 15:35 Sunny 59 15.1 17 -8.3 19 19 NW 12 19 30.09 1019 10 16 N/A
3:55 pm 15:55 Sunny 59 15 17 -8.3 19 19 NNW 12 19 30.09 1019 10 16 N/A
4:15 pm 16:15 Sunny 59 15.1 16 -8.8 18 18 NNW 14 22 30.09 1019 10 16 N/A
4:35 pm 16:35 Sunny 59 15 14 -10 17 17 NNW 10 17 30.09 1019 10 16 N/A
4:55 pm 16:55 Sunny 58 14.6 14 -10.2 17 17 N 8 13 30.09 1019 10 16 N/A
5:15 pm 17:15 Sunny 58 14.5 15 -9.7 18 18 NW 7 11 30.09 1019 10 16 N/A
5:35 pm 17:35 Sunny 57 14 15 -9.2 19 19 NNW 5 7 30.09 1019 10 16 N/A
5:55 pm 17:55 Sunny 55 12.6 16 -8.8 22 22 NNW 3 6 30.12 1020 10 16 N/A
6:15 pm 18:15 Sunny 52 11.2 17 -8.3 25 25 N N/A 30.12 1020 10 16 N/A
6:35 pm 18:35 Clear 50 10.2 17 -8.3 27 27 N N/A 30.15 1021 10 16 N/A
6:55 pm 18:55 Clear 48 8.7 17 -8.1 30 30 N N/A 30.15 1021 10 16 N/A
7:15 pm 19:15 Clear 46 8 18 -7.9 32 32 N N/A 30.15 1021 10 16 N/A
7:35 pm 19:35 Clear 40 4.6 19 -7 43 43 SSW 3 6 30.18 1022 10 16 N/A
7:55 pm 19:55 Clear 38 3.3 19 -7.4 46 46 N N/A 30.21 1023 10 16 N/A
8:15 pm 20:15 Clear 43 6 17 -8.5 35 35 N N/A 30.18 1022 10 16 N/A
8:35 pm 20:35 Clear 40 4.5 17 -8.2 40 40 S 3 6 30.15 1021 10 16 N/A
8:55 pm 20:55 Clear 36 2.4 18 -7.9 47 47 S 3 6 30.18 1022 10 16 N/A
9:15 pm 21:15 Clear 37 2.9 18 -8 45 45 S 5 7 30.18 1022 10 16 N/A
9:35 pm 21:35 Clear 38 3.2 18 -8 44 44 S 7 11 30.18 1022 10 16 N/A
9:55 pm 21:55 Clear 38 3.2 17 -8.1 44 44 SSW 8 13 30.18 1022 10 16 N/A
10:15 pm 22:15 Clear 38 3.3 18 -8 44 44 SSW 8 13 30.18 1022 10 16 N/A
10:35 pm 22:35 Clear 38 3.6 18 -8 43 43 SSW 7 11 30.15 1021 10 16 N/A
10:55 pm 22:55 Clear 38 3.5 19 -7.5 45 45 SSW 7 11 30.15 1021 10 16 N/A
11:15 pm 23:15 Clear 38 3.2 19 -7.2 47 47 SW 8 13 30.18 1022 10 16 N/A
11:35 pm 23:35 Clear 40 4.3 19 -7.2 43 43 SSW 8 13 30.12 1020 10 16 N/A
11:55 pm 23:55 Clear 39 3.9 19 -7.1 45 45 SSW 8 13 30.12 1020 10 16 N/A

Powered by AerisWeather